| time (UTC) | temp F | wind direction | speed knots | gust knots | rain 1hr in | rain 24hr in | rain mn in | humidity % | barometer mb |
| 20260510173917 | 72 | 238 | 2.6 | 4.3 | 0.00 | 0.00 | 0.00 | 67 | 1013.4 |
| 20260510173417 | 73 | 148 | 2.6 | 4.3 | 0.00 | 0.00 | 0.00 | 66 | 1013.3 |
| 20260510172917 | 73 | 260 | 1.7 | 3.5 | 0.00 | 0.00 | 0.00 | 67 | 1013.4 |
| 20260510172417 | 72 | 215 | 1.7 | 2.6 | 0.00 | 0.00 | 0.00 | 68 | 1013.3 |
| 20260510171937 | 71 | 0.0 | 0.9 | 0.00 | 0.00 | 0.00 | 70 | 1013.4 | |
| 20260510171416 | 71 | 170 | 1.7 | 4.3 | 0.00 | 0.00 | 0.00 | 70 | 1013.4 |
| 20260510170937 | 71 | 260 | 1.7 | 2.6 | 0.00 | 0.00 | 0.00 | 70 | 1013.4 |
| 20260510170417 | 70 | 215 | 0.9 | 1.7 | 0.00 | 0.00 | 0.00 | 71 | 1013.3 |
| 20260510165917 | 71 | 328 | 0.9 | 2.6 | 0.00 | 0.00 | 0.00 | 70 | 1013.3 |
| 20260510165416 | 71 | 13 | 1.7 | 2.6 | 0.00 | 0.00 | 0.00 | 69 | 1013.3 |
| 20260510164916 | 70 | 125 | 1.7 | 2.6 | 0.00 | 0.00 | 0.00 | 71 | 1013.3 |
| 20260510164437 | 69 | 125 | 1.7 | 2.6 | 0.00 | 0.00 | 0.00 | 71 | 1013.3 |
| 20260510163916 | 70 | 148 | 3.5 | 4.3 | 0.00 | 0.00 | 0.00 | 70 | 1013.3 |
| 20260510163416 | 69 | 0.0 | 0.0 | 0.00 | 0.00 | 0.00 | 73 | 1013.3 | |
| 20260510162916 | 68 | 0.0 | 0.9 | 0.00 | 0.00 | 0.00 | 74 | 1013.3 | |
| 20260510162417 | 68 | 80 | 0.9 | 1.7 | 0.00 | 0.00 | 0.00 | 74 | 1013.4 |
| 20260510161917 | 68 | 215 | 0.9 | 1.7 | 0.00 | 0.00 | 0.00 | 74 | 1013.4 |
| 20260510161416 | 68 | 148 | 0.9 | 1.7 | 0.00 | 0.00 | 0.00 | 74 | 1013.4 |
| 20260510160917 | 68 | 35 | 1.7 | 2.6 | 0.00 | 0.00 | 0.00 | 75 | 1013.4 |
| 20260510160416 | 67 | 103 | 0.9 | 1.7 | 0.00 | 0.00 | 0.00 | 76 | 1013.3 |
| 20260510155916 | 66 | 148 | 1.7 | 2.6 | 0.00 | 0.00 | 0.00 | 78 | 1013.3 |
| 20260510155436 | 65 | 80 | 1.7 | 2.6 | 0.00 | 0.00 | 0.00 | 80 | 1013.2 |
| 20260510154916 | 64 | 125 | 0.9 | 2.6 | 0.00 | 0.00 | 0.00 | 81 | 1013.3 |
| 20260510154416 | 64 | 125 | 2.6 | 3.5 | 0.00 | 0.00 | 0.00 | 82 | 1013.3 |
| 20260510153916 | 63 | 125 | 1.7 | 3.5 | 0.00 | 0.00 | 0.00 | 82 | 1013.3 |
| 20260510153417 | 63 | 125 | 2.6 | 3.5 | 0.00 | 0.00 | 0.00 | 82 | 1013.2 |
| 20260510152917 | 63 | 148 | 2.6 | 3.5 | 0.00 | 0.00 | 0.00 | 81 | 1013.2 |
| 20260510152416 | 64 | 80 | 0.9 | 1.7 | 0.00 | 0.00 | 0.00 | 81 | 1013.2 |
| 20260510151916 | 63 | 0.0 | 0.0 | 0.00 | 0.00 | 0.00 | 82 | 1013.2 | |
| 20260510151417 | 63 | 148 | 1.7 | 2.6 | 0.00 | 0.00 | 0.00 | 82 | 1013.2 |
| 20260510150916 | 63 | 125 | 1.7 | 2.6 | 0.00 | 0.00 | 0.00 | 83 | 1013.2 |
| 20260510150417 | 63 | 0.0 | 0.9 | 0.00 | 0.00 | 0.00 | 83 | 1013.2 | |
| 20260510145917 | 63 | 148 | 1.7 | 2.6 | 0.00 | 0.00 | 0.00 | 83 | 1013.2 |
| 20260510145417 | 63 | 0.0 | 0.0 | 0.00 | 0.00 | 0.00 | 84 | 1013.1 | |
| 20260510144936 | 62 | 0.0 | 0.0 | 0.00 | 0.00 | 0.00 | 84 | 1013.1 | |
| 20260510144416 | 62 | 0.0 | 0.0 | 0.00 | 0.00 | 0.00 | 84 | 1013.0 | |
| 20260510143936 | 62 | 0.0 | 0.0 | 0.00 | 0.00 | 0.00 | 84 | 1013.1 | |
| 20260510143416 | 62 | 0.0 | 0.9 | 0.00 | 0.00 | 0.00 | 85 | 1013.0 | |
| 20260510142916 | 62 | 125 | 1.7 | 1.7 | 0.00 | 0.00 | 0.00 | 85 | 1013.0 |
| 20260510142416 | 62 | 0.0 | 0.0 | 0.00 | 0.00 | 0.00 | 85 | 1013.0 | |
| 20260510141916 | 62 | 0.0 | 0.9 | 0.00 | 0.00 | 0.00 | 85 | 1013.0 | |
| 20260510141416 | 62 | 0.0 | 0.0 | 0.00 | 0.00 | 0.00 | 85 | 1012.9 | |
| 20260510140917 | 62 | 0.0 | 0.9 | 0.00 | 0.00 | 0.00 | 86 | 1013.0 | |
| 20260510140416 | 61 | 125 | 1.7 | 2.6 | 0.00 | 0.00 | 0.00 | 86 | 1012.9 |
| 20260510135936 | 61 | 58 | 1.7 | 1.7 | 0.00 | 0.00 | 0.00 | 86 | 1012.9 |
| 20260510135417 | 61 | 0.0 | 0.9 | 0.00 | 0.00 | 0.00 | 86 | 1012.8 | |
| 20260510134916 | 61 | 0.0 | 0.9 | 0.00 | 0.00 | 0.00 | 86 | 1012.8 | |
| 20260510134416 | 61 | 58 | 0.9 | 1.7 | 0.00 | 0.00 | 0.00 | 86 | 1012.8 |
| 20260510133916 | 61 | 58 | 0.9 | 1.7 | 0.00 | 0.00 | 0.00 | 86 | 1012.7 |
| 20260510133416 | 61 | 0.0 | 0.0 | 0.00 | 0.00 | 0.00 | 87 | 1012.7 | |
| 20260510132916 | 61 | 58 | 0.9 | 2.6 | 0.00 | 0.00 | 0.00 | 87 | 1012.7 |
| 20260510132457 | 61 | 58 | 1.7 | 2.6 | 0.00 | 0.00 | 0.00 | 87 | 1012.6 |
| 20260510131916 | 61 | 0.0 | 0.9 | 0.00 | 0.00 | 0.00 | 87 | 1012.6 | |
| 20260510131416 | 61 | 0.0 | 0.9 | 0.00 | 0.00 | 0.00 | 87 | 1012.6 | |
| 20260510130916 | 61 | 0.0 | 0.9 | 0.00 | 0.00 | 0.00 | 87 | 1012.6 | |
| 20260510130457 | 61 | 0.0 | 0.0 | 0.00 | 0.00 | 0.00 | 87 | 1012.5 | |
| 20260510125916 | 61 | 0.0 | 0.0 | 0.00 | 0.00 | 0.00 | 87 | 1012.4 | |
| 20260510125416 | 61 | 0.0 | 0.0 | 0.00 | 0.00 | 0.00 | 87 | 1012.5 | |
| 20260510124916 | 61 | 125 | 0.9 | 1.7 | 0.00 | 0.00 | 0.00 | 87 | 1012.4 |
| 20260510124416 | 61 | 125 | 0.9 | 1.7 | 0.00 | 0.00 | 0.00 | 87 | 1012.5 |
| 20260510123916 | 61 | 0.0 | 0.9 | 0.00 | 0.00 | 0.00 | 88 | 1012.5 | |
| 20260510123416 | 61 | 0.0 | 0.0 | 0.00 | 0.00 | 0.00 | 88 | 1012.6 | |
| 20260510122916 | 61 | 0.0 | 0.9 | 0.00 | 0.00 | 0.00 | 88 | 1012.7 | |
| 20260510122416 | 61 | 0.0 | 1.7 | 0.00 | 0.00 | 0.00 | 88 | 1012.7 | |
| 20260510121916 | 61 | 0.0 | 0.0 | 0.00 | 0.00 | 0.00 | 88 | 1012.6 | |
| 20260510121416 | 60 | 0.0 | 0.0 | 0.00 | 0.00 | 0.00 | 88 | 1012.7 | |
| 20260510120916 | 61 | 260 | 0.9 | 0.9 | 0.00 | 0.00 | 0.00 | 88 | 1012.6 |
| 20260510120416 | 61 | 0.0 | 0.0 | 0.00 | 0.00 | 0.00 | 88 | 1012.6 | |
| 20260510115916 | 61 | 0.0 | 0.0 | 0.00 | 0.00 | 0.00 | 88 | 1012.6 | |
| 20260510115416 | 61 | 0.0 | 0.0 | 0.00 | 0.00 | 0.00 | 88 | 1012.6 | |
| 20260510114916 | 60 | 125 | 1.7 | 2.6 | 0.00 | 0.00 | 0.00 | 88 | 1012.6 |
| 20260510114416 | 60 | 215 | 1.7 | 3.5 | 0.00 | 0.00 | 0.00 | 88 | 1012.6 |
| 20260510113916 | 60 | 0.0 | 0.9 | 0.00 | 0.00 | 0.00 | 89 | 1012.6 | |
| 20260510113416 | 60 | 0.0 | 0.9 | 0.00 | 0.00 | 0.00 | 89 | 1012.5 | |
| 20260510112916 | 60 | 0.0 | 0.9 | 0.00 | 0.00 | 0.00 | 89 | 1012.5 | |
| 20260510112436 | 60 | 0.0 | 0.9 | 0.00 | 0.00 | 0.00 | 89 | 1012.5 | |
| 20260510111916 | 60 | 125 | 0.9 | 1.7 | 0.00 | 0.00 | 0.00 | 89 | 1012.5 |
| 20260510111416 | 60 | 0.0 | 0.0 | 0.00 | 0.00 | 0.00 | 90 | 1012.5 | |
| 20260510110916 | 60 | 125 | 0.9 | 0.9 | 0.00 | 0.00 | 0.00 | 90 | 1012.5 |
| 20260510110416 | 60 | 0.0 | 0.0 | 0.00 | 0.00 | 0.00 | 90 | 1012.5 | |
| 20260510105916 | 60 | 0.0 | 0.9 | 0.00 | 0.00 | 0.00 | 90 | 1012.6 | |
| 20260510105537 | 60 | 0.0 | 0.0 | 0.00 | 0.00 | 0.00 | 90 | 1012.6 | |
| 20260510104916 | 60 | 0.0 | 0.0 | 0.00 | 0.00 | 0.00 | 90 | 1012.5 | |
| 20260510104436 | 60 | 0.0 | 0.0 | 0.00 | 0.00 | 0.00 | 90 | 1012.6 | |
| 20260510103916 | 60 | 125 | 0.9 | 1.7 | 0.00 | 0.00 | 0.00 | 90 | 1012.6 |
| 20260510103416 | 60 | 125 | 1.7 | 2.6 | 0.00 | 0.00 | 0.00 | 90 | 1012.6 |
| 20260510102956 | 59 | 0.0 | 0.0 | 0.00 | 0.00 | 0.00 | 91 | 1012.6 | |
| 20260510102416 | 59 | 148 | 1.7 | 2.6 | 0.00 | 0.00 | 0.00 | 90 | 1012.6 |
| 20260510101916 | 59 | 260 | 1.7 | 1.7 | 0.00 | 0.00 | 0.00 | 90 | 1012.7 |
| 20260510101436 | 59 | 0.0 | 0.0 | 0.00 | 0.00 | 0.00 | 91 | 1012.7 | |
| 20260510100916 | 59 | 238 | 0.9 | 1.7 | 0.00 | 0.00 | 0.00 | 90 | 1012.7 |
| 20260510100416 | 59 | 170 | 0.9 | 2.6 | 0.00 | 0.00 | 0.00 | 90 | 1012.8 |
| 20260510095936 | 59 | 170 | 1.7 | 2.6 | 0.00 | 0.00 | 0.00 | 90 | 1012.7 |
| 20260510095416 | 59 | 170 | 1.7 | 3.5 | 0.00 | 0.00 | 0.00 | 91 | 1012.8 |
| 20260510094916 | 60 | 170 | 1.7 | 2.6 | 0.00 | 0.00 | 0.00 | 91 | 1012.7 |
| 20260510094416 | 60 | 148 | 1.7 | 1.7 | 0.00 | 0.00 | 0.00 | 91 | 1012.7 |
| 20260510093916 | 60 | 0.0 | 0.9 | 0.00 | 0.00 | 0.00 | 91 | 1012.6 | |
| 20260510093416 | 60 | 0.0 | 0.0 | 0.00 | 0.00 | 0.00 | 91 | 1012.6 | |
| 20260510092916 | 60 | 0.0 | 0.9 | 0.00 | 0.00 | 0.00 | 91 | 1012.7 | |
| 20260510092416 | 60 | 103 | 2.6 | 3.5 | 0.00 | 0.00 | 0.00 | 91 | 1012.7 |
| 20260510091916 | 60 | 215 | 0.9 | 0.9 | 0.00 | 0.00 | 0.00 | 90 | 1012.7 |
| 20260510091416 | 60 | 148 | 0.9 | 1.7 | 0.00 | 0.00 | 0.00 | 90 | 1012.7 |
| 20260510090916 | 60 | 148 | 0.9 | 1.7 | 0.00 | 0.00 | 0.00 | 90 | 1012.7 |
| 20260510090416 | 60 | 125 | 1.7 | 2.6 | 0.00 | 0.00 | 0.00 | 90 | 1012.8 |
| 20260510085916 | 60 | 125 | 2.6 | 3.5 | 0.00 | 0.00 | 0.00 | 90 | 1012.7 |
| 20260510085416 | 60 | 125 | 1.7 | 2.6 | 0.00 | 0.00 | 0.00 | 90 | 1012.7 |
| 20260510084916 | 60 | 125 | 1.7 | 3.5 | 0.00 | 0.00 | 0.00 | 90 | 1012.7 |
| 20260510084416 | 60 | 0.0 | 0.9 | 0.00 | 0.00 | 0.00 | 90 | 1012.7 | |
| 20260510083916 | 60 | 170 | 0.9 | 2.6 | 0.00 | 0.00 | 0.00 | 90 | 1012.8 |
| 20260510083436 | 60 | 125 | 1.7 | 2.6 | 0.00 | 0.00 | 0.00 | 90 | 1012.7 |
| 20260510082916 | 60 | 0.0 | 0.9 | 0.00 | 0.00 | 0.00 | 90 | 1012.7 | |
| 20260510082416 | 60 | 0.0 | 0.0 | 0.00 | 0.00 | 0.00 | 90 | 1012.8 | |
| 20260510081915 | 60 | 0.0 | 0.0 | 0.00 | 0.00 | 0.00 | 90 | 1012.9 | |
| 20260510081416 | 60 | 125 | 2.6 | 3.5 | 0.00 | 0.00 | 0.00 | 89 | 1012.9 |
| 20260510080916 | 61 | 170 | 0.9 | 0.9 | 0.00 | 0.00 | 0.00 | 90 | 1012.9 |
| 20260510080416 | 61 | 0.0 | 0.0 | 0.00 | 0.00 | 0.00 | 90 | 1012.9 | |
| 20260510075916 | 61 | 148 | 1.7 | 2.6 | 0.00 | 0.00 | 0.00 | 90 | 1012.9 |
| 20260510075416 | 61 | 125 | 1.7 | 3.5 | 0.00 | 0.00 | 0.00 | 90 | 1013.0 |
| 20260510074916 | 61 | 148 | 1.7 | 3.5 | 0.00 | 0.00 | 0.00 | 89 | 1013.0 |
| 20260510074416 | 61 | 103 | 1.7 | 2.6 | 0.00 | 0.00 | 0.00 | 89 | 1013.0 |
| 20260510073915 | 61 | 125 | 3.5 | 5.2 | 0.00 | 0.00 | 0.00 | 89 | 1013.1 |
| 20260510073415 | 61 | 125 | 2.6 | 3.5 | 0.00 | 0.00 | 0.00 | 89 | 1013.1 |
| 20260510072915 | 61 | 148 | 1.7 | 3.5 | 0.00 | 0.00 | 0.00 | 89 | 1013.1 |
| 20260510072416 | 61 | 170 | 1.7 | 2.6 | 0.00 | 0.00 | 0.00 | 89 | 1013.0 |
| 20260510071955 | 61 | 0.0 | 1.7 | 0.00 | 0.00 | 0.00 | 89 | 1013.1 | |
| 20260510071415 | 61 | 0.0 | 0.0 | 0.00 | 0.00 | 0.00 | 89 | 1013.1 | |
| 20260510070936 | 61 | 0.0 | 0.9 | 0.00 | 0.00 | 0.00 | 89 | 1013.0 | |
| 20260510070415 | 61 | 103 | 0.9 | 1.7 | 0.00 | 0.00 | 0.00 | 90 | 1013.1 |
| 20260510065916 | 61 | 125 | 1.7 | 1.7 | 0.00 | 0.00 | 0.00 | 90 | 1013.1 |
| 20260510065416 | 61 | 148 | 0.9 | 2.6 | 0.00 | 0.00 | 0.00 | 90 | 1013.1 |
| 20260510064916 | 61 | 125 | 3.5 | 4.3 | 0.00 | 0.00 | 0.00 | 90 | 1013.1 |
| 20260510064416 | 61 | 148 | 1.7 | 2.6 | 0.00 | 0.00 | 0.00 | 90 | 1013.1 |
| 20260510063916 | 61 | 0.0 | 0.0 | 0.00 | 0.00 | 0.00 | 90 | 1013.2 | |
| 20260510063416 | 60 | 148 | 1.7 | 1.7 | 0.00 | 0.00 | 0.00 | 90 | 1013.1 |
| 20260510062936 | 60 | 148 | 0.9 | 1.7 | 0.00 | 0.00 | 0.00 | 91 | 1013.1 |
| 20260510062416 | 60 | 0.0 | 0.9 | 0.00 | 0.00 | 0.00 | 91 | 1013.1 | |
| 20260510061916 | 60 | 125 | 1.7 | 2.6 | 0.00 | 0.00 | 0.00 | 91 | 1013.1 |
| 20260510061416 | 60 | 305 | 0.9 | 0.9 | 0.00 | 0.00 | 0.00 | 91 | 1013.1 |
| 20260510060936 | 60 | 0.0 | 0.0 | 0.00 | 0.00 | 0.00 | 91 | 1013.1 | |
| 20260510060416 | 60 | 283 | 1.7 | 1.7 | 0.00 | 0.00 | 0.00 | 91 | 1013.1 |
| 20260510055916 | 60 | 0.0 | 0.9 | 0.00 | 0.00 | 0.00 | 91 | 1013.1 | |
| 20260510055416 | 60 | 0.0 | 0.0 | 0.00 | 0.00 | 0.00 | 91 | 1013.1 | |
| 20260510054956 | 60 | 238 | 0.9 | 1.7 | 0.00 | 0.00 | 0.00 | 91 | 1013.2 |
| 20260510054436 | 60 | 238 | 0.9 | 0.9 | 0.00 | 0.00 | 0.00 | 91 | 1013.2 |
| 20260510053916 | 60 | 0.0 | 0.0 | 0.00 | 0.00 | 0.00 | 91 | 1013.2 | |
| 20260510053416 | 60 | 0.0 | 0.0 | 0.00 | 0.00 | 0.00 | 91 | 1013.2 | |
| 20260510052916 | 60 | 0.0 | 0.9 | 0.00 | 0.00 | 0.00 | 91 | 1013.3 | |
| 20260510052416 | 59 | 0.0 | 0.9 | 0.00 | 0.00 | 0.00 | 91 | 1013.1 | |
| 20260510051916 | 59 | 328 | 0.9 | 2.6 | 0.00 | 0.00 | 0.00 | 91 | 1013.1 |
| 20260510051436 | 59 | 0.0 | 0.0 | 0.00 | 0.00 | 0.00 | 91 | 1013.1 | |
| 20260510050916 | 59 | 283 | 0.9 | 1.7 | 0.00 | 0.00 | 0.00 | 91 | 1013.1 |
| 20260510050436 | 59 | 0.0 | 0.9 | 0.00 | 0.00 | 0.00 | 91 | 1013.2 | |
| 20260510045916 | 59 | 283 | 0.9 | 1.7 | 0.00 | 0.00 | 0.00 | 91 | 1013.2 |
| 20260510045416 | 59 | 328 | 0.9 | 2.6 | 0.00 | 0.00 | 0.00 | 91 | 1013.2 |
| 20260510044916 | 59 | 260 | 1.7 | 2.6 | 0.00 | 0.00 | 0.00 | 91 | 1013.1 |
| 20260510044416 | 59 | 305 | 1.7 | 2.6 | 0.00 | 0.00 | 0.00 | 91 | 1013.0 |
| 20260510043916 | 59 | 305 | 0.9 | 1.7 | 0.00 | 0.00 | 0.00 | 91 | 1013.1 |
| 20260510043416 | 60 | 283 | 2.6 | 3.5 | 0.00 | 0.00 | 0.00 | 91 | 1013.0 |
| 20260510042936 | 60 | 260 | 1.7 | 2.6 | 0.00 | 0.00 | 0.00 | 90 | 1013.0 |
| 20260510042416 | 60 | 305 | 1.7 | 3.5 | 0.00 | 0.00 | 0.00 | 90 | 1012.9 |
| 20260510041916 | 60 | 305 | 1.7 | 2.6 | 0.00 | 0.00 | 0.00 | 90 | 1012.9 |
| 20260510041416 | 60 | 260 | 2.6 | 3.5 | 0.00 | 0.00 | 0.00 | 90 | 1012.9 |
| 20260510040916 | 60 | 283 | 1.7 | 2.6 | 0.00 | 0.00 | 0.00 | 90 | 1012.8 |
| 20260510040416 | 60 | 283 | 1.7 | 2.6 | 0.00 | 0.00 | 0.00 | 90 | 1012.7 |
| 20260510035916 | 60 | 305 | 1.7 | 3.5 | 0.00 | 0.00 | 0.00 | 90 | 1012.7 |
| 20260510035436 | 60 | 0.0 | 0.9 | 0.00 | 0.00 | 0.00 | 90 | 1012.6 | |
| 20260510034916 | 60 | 283 | 1.7 | 2.6 | 0.00 | 0.00 | 0.00 | 90 | 1012.6 |
| 20260510034436 | 60 | 260 | 2.6 | 3.5 | 0.00 | 0.00 | 0.00 | 89 | 1012.5 |
| 20260510033916 | 61 | 305 | 2.6 | 5.2 | 0.00 | 0.00 | 0.00 | 89 | 1012.4 |
| 20260510033416 | 61 | 305 | 0.9 | 1.7 | 0.00 | 0.00 | 0.00 | 89 | 1012.2 |
| 20260510032916 | 61 | 283 | 3.5 | 5.2 | 0.00 | 0.00 | 0.00 | 89 | 1012.2 |
| 20260510032416 | 61 | 283 | 2.6 | 4.3 | 0.00 | 0.00 | 0.00 | 89 | 1012.1 |
| 20260510031916 | 61 | 305 | 2.6 | 3.5 | 0.00 | 0.00 | 0.00 | 88 | 1012.1 |
| 20260510031416 | 61 | 305 | 2.6 | 4.3 | 0.00 | 0.00 | 0.00 | 88 | 1012.1 |
| 20260510030916 | 61 | 260 | 2.6 | 3.5 | 0.00 | 0.00 | 0.00 | 88 | 1012.0 |
| 20260510030416 | 61 | 283 | 2.6 | 3.5 | 0.00 | 0.00 | 0.00 | 88 | 1011.9 |
| 20260510025916 | 61 | 283 | 2.6 | 3.5 | 0.00 | 0.00 | 0.00 | 87 | 1011.9 |
| 20260510025416 | 62 | 283 | 2.6 | 5.2 | 0.00 | 0.00 | 0.00 | 87 | 1011.9 |
| 20260510024916 | 62 | 305 | 2.6 | 4.3 | 0.00 | 0.00 | 0.00 | 86 | 1011.8 |
| 20260510024416 | 62 | 305 | 1.7 | 3.5 | 0.00 | 0.00 | 0.00 | 86 | 1011.8 |
| 20260510023915 | 63 | 260 | 2.6 | 4.3 | 0.00 | 0.00 | 0.00 | 85 | 1011.7 |
| 20260510023416 | 63 | 305 | 3.5 | 6.1 | 0.00 | 0.00 | 0.00 | 84 | 1011.7 |
| 20260510022915 | 63 | 260 | 3.5 | 4.3 | 0.00 | 0.00 | 0.00 | 84 | 1011.6 |
| 20260510022416 | 63 | 305 | 3.5 | 5.2 | 0.00 | 0.00 | 0.00 | 84 | 1011.6 |
| 20260510021916 | 64 | 283 | 2.6 | 3.5 | 0.00 | 0.00 | 0.00 | 83 | 1011.6 |
| 20260510021416 | 64 | 283 | 3.5 | 5.2 | 0.00 | 0.00 | 0.00 | 83 | 1011.5 |
| 20260510020935 | 64 | 260 | 5.2 | 7.8 | 0.00 | 0.00 | 0.00 | 81 | 1011.5 |
| 20260510020415 | 65 | 305 | 3.5 | 7.0 | 0.00 | 0.00 | 0.00 | 81 | 1011.5 |
| 20260510015916 | 65 | 283 | 3.5 | 6.1 | 0.00 | 0.00 | 0.00 | 81 | 1011.4 |
| 20260510015416 | 65 | 305 | 4.3 | 6.1 | 0.00 | 0.00 | 0.00 | 80 | 1011.4 |
| 20260510014916 | 65 | 260 | 4.3 | 6.1 | 0.00 | 0.00 | 0.00 | 80 | 1011.3 |
| 20260510014415 | 66 | 283 | 5.2 | 7.8 | 0.00 | 0.00 | 0.00 | 78 | 1011.4 |
| 20260510013915 | 66 | 283 | 4.3 | 7.0 | 0.00 | 0.00 | 0.00 | 78 | 1011.3 |
| 20260510013415 | 67 | 305 | 3.5 | 5.2 | 0.00 | 0.00 | 0.00 | 77 | 1011.3 |
| 20260510012915 | 67 | 283 | 6.1 | 8.7 | 0.00 | 0.00 | 0.00 | 75 | 1011.2 |
| 20260510012415 | 67 | 283 | 3.5 | 5.2 | 0.00 | 0.00 | 0.00 | 76 | 1011.2 |
| 20260510011916 | 68 | 283 | 5.2 | 7.8 | 0.00 | 0.00 | 0.00 | 75 | 1011.2 |
| 20260510011416 | 68 | 283 | 5.2 | 10.4 | 0.00 | 0.00 | 0.00 | 74 | 1011.1 |
| 20260510010915 | 69 | 283 | 4.3 | 7.0 | 0.00 | 0.00 | 0.00 | 74 | 1011.1 |
| 20260510010415 | 70 | 260 | 3.5 | 6.1 | 0.00 | 0.00 | 0.00 | 72 | 1011.0 |
| 20260510005956 | 70 | 283 | 3.5 | 6.1 | 0.00 | 0.00 | 0.00 | 73 | 1011.0 |
| 20260510005415 | 70 | 260 | 4.3 | 7.0 | 0.00 | 0.00 | 0.00 | 71 | 1011.1 |
| 20260510004916 | 71 | 283 | 7.0 | 11.3 | 0.00 | 0.00 | 0.00 | 70 | 1011.1 |
| 20260510004416 | 71 | 283 | 5.2 | 8.7 | 0.00 | 0.00 | 0.00 | 69 | 1011.1 |
| 20260510003916 | 71 | 283 | 5.2 | 7.0 | 0.00 | 0.00 | 0.00 | 68 | 1011.1 |
| 20260510003415 | 71 | 260 | 4.3 | 7.0 | 0.00 | 0.00 | 0.00 | 68 | 1011.0 |
| 20260510002916 | 71 | 305 | 5.2 | 7.0 | 0.00 | 0.00 | 0.00 | 68 | 1011.1 |
| 20260510002415 | 72 | 283 | 6.1 | 9.6 | 0.00 | 0.00 | 0.00 | 67 | 1011.1 |
| 20260510001915 | 71 | 283 | 3.5 | 7.0 | 0.00 | 0.00 | 0.00 | 68 | 1011.1 |
| 20260510001415 | 71 | 260 | 5.2 | 7.8 | 0.00 | 0.00 | 0.00 | 68 | 1011.2 |
| 20260510000915 | 72 | 283 | 7.0 | 8.7 | 0.00 | 0.00 | 0.00 | 68 | 1011.1 |
| 20260510000418 | 72 | 260 | 6.1 | 7.8 | 0.00 | 0.00 | 0.00 | 67 | 1011.2 |
| 20260509235936 | 72 | 283 | 5.2 | 8.7 | 0.00 | 0.00 | 0.00 | 67 | 1011.1 |
| 20260509235415 | 73 | 260 | 5.2 | 7.0 | 0.00 | 0.00 | 0.00 | 67 | 1011.2 |
| 20260509234915 | 73 | 283 | 6.1 | 8.7 | 0.00 | 0.00 | 0.00 | 66 | 1011.2 |
| 20260509234415 | 73 | 260 | 5.2 | 7.0 | 0.00 | 0.00 | 0.00 | 65 | 1011.2 |
| 20260509234016 | 74 | 260 | 6.1 | 7.8 | 0.00 | 0.00 | 0.00 | 64 | 1011.1 |
| 20260509233415 | 75 | 283 | 3.5 | 5.2 | 0.00 | 0.00 | 0.00 | 63 | 1011.1 |
| 20260509232936 | 75 | 283 | 4.3 | 6.1 | 0.00 | 0.00 | 0.00 | 63 | 1011.2 |
| 20260509232415 | 74 | 283 | 3.5 | 5.2 | 0.00 | 0.00 | 0.00 | 63 | 1011.1 |
| 20260509231915 | 75 | 283 | 3.5 | 5.2 | 0.00 | 0.00 | 0.00 | 63 | 1011.1 |
| 20260509231415 | 75 | 283 | 4.3 | 7.8 | 0.00 | 0.00 | 0.00 | 64 | 1011.2 |
| 20260509230916 | 74 | 283 | 2.6 | 3.5 | 0.00 | 0.00 | 0.00 | 63 | 1011.2 |
| 20260509230416 | 74 | 305 | 4.3 | 7.0 | 0.00 | 0.00 | 0.00 | 64 | 1011.2 |
| 20260509225915 | 74 | 260 | 3.5 | 6.1 | 0.00 | 0.00 | 0.00 | 64 | 1011.1 |
| 20260509225415 | 74 | 283 | 3.5 | 5.2 | 0.00 | 0.00 | 0.00 | 63 | 1011.2 |
| 20260509224935 | 75 | 260 | 3.5 | 6.1 | 0.00 | 0.00 | 0.00 | 63 | 1011.2 |
| 20260509224415 | 75 | 260 | 4.3 | 7.0 | 0.00 | 0.00 | 0.00 | 63 | 1011.2 |
| 20260509223915 | 75 | 305 | 4.3 | 6.1 | 0.00 | 0.00 | 0.00 | 63 | 1011.3 |
| 20260509223415 | 75 | 170 | 3.5 | 6.1 | 0.00 | 0.00 | 0.00 | 63 | 1011.3 |
| 20260509222915 | 75 | 283 | 3.5 | 5.2 | 0.00 | 0.00 | 0.00 | 64 | 1011.4 |
| 20260509222435 | 75 | 260 | 4.3 | 7.0 | 0.00 | 0.00 | 0.00 | 64 | 1011.5 |
| 20260509221915 | 75 | 260 | 4.3 | 6.1 | 0.00 | 0.00 | 0.00 | 63 | 1011.6 |
| 20260509221415 | 76 | 260 | 2.6 | 4.3 | 0.00 | 0.00 | 0.00 | 63 | 1011.8 |
| 20260509220915 | 75 | 193 | 4.3 | 7.0 | 0.00 | 0.00 | 0.00 | 64 | 1011.8 |
| 20260509220435 | 75 | 148 | 4.3 | 6.1 | 0.00 | 0.00 | 0.00 | 64 | 1011.8 |
| 20260509215915 | 75 | 238 | 3.5 | 5.2 | 0.00 | 0.00 | 0.00 | 63 | 1012.0 |
| 20260509215415 | 76 | 148 | 5.2 | 7.0 | 0.00 | 0.00 | 0.00 | 63 | 1012.0 |
| 20260509214915 | 75 | 148 | 3.5 | 6.1 | 0.00 | 0.00 | 0.00 | 64 | 1011.9 |
| 20260509214415 | 75 | 170 | 1.7 | 4.3 | 0.00 | 0.00 | 0.00 | 63 | 1011.9 |
| 20260509213915 | 75 | 260 | 2.6 | 3.5 | 0.00 | 0.00 | 0.00 | 64 | 1011.9 |
| 20260509213415 | 75 | 215 | 2.6 | 4.3 | 0.00 | 0.00 | 0.00 | 64 | 1012.1 |
| 20260509212915 | 74 | 238 | 1.7 | 2.6 | 0.00 | 0.00 | 0.00 | 65 | 1012.1 |
| 20260509212435 | 74 | 215 | 1.7 | 3.5 | 0.00 | 0.00 | 0.00 | 65 | 1012.2 |
| 20260509211917 | 74 | 215 | 2.6 | 3.5 | 0.00 | 0.00 | 0.00 | 65 | 1012.4 |
| 20260509211417 | 74 | 170 | 4.3 | 6.1 | 0.00 | 0.00 | 0.00 | 65 | 1012.4 |
| 20260509210917 | 74 | 215 | 3.5 | 5.2 | 0.00 | 0.00 | 0.00 | 65 | 1012.4 |
| 20260509210417 | 74 | 260 | 3.5 | 5.2 | 0.00 | 0.00 | 0.00 | 65 | 1012.4 |
| 20260509205917 | 74 | 260 | 4.3 | 6.1 | 0.00 | 0.00 | 0.00 | 65 | 1012.5 |
| 20260509205415 | 74 | 148 | 2.6 | 4.3 | 0.00 | 0.00 | 0.00 | 65 | 1012.6 |
| 20260509204917 | 74 | 148 | 3.5 | 4.3 | 0.00 | 0.00 | 0.00 | 66 | 1012.6 |
| 20260509204417 | 73 | 125 | 1.7 | 2.6 | 0.00 | 0.00 | 0.00 | 67 | 1012.6 |
| 20260509203917 | 73 | 148 | 6.1 | 7.0 | 0.00 | 0.00 | 0.00 | 66 | 1012.6 |
| 20260509203417 | 74 | 148 | 4.3 | 6.1 | 0.00 | 0.00 | 0.00 | 65 | 1012.7 |
| 20260509202917 | 74 | 260 | 2.6 | 5.2 | 0.00 | 0.00 | 0.00 | 66 | 1012.7 |
| 20260509202437 | 73 | 170 | 2.6 | 4.3 | 0.00 | 0.00 | 0.00 | 68 | 1012.7 |
| 20260509201917 | 73 | 238 | 1.7 | 4.3 | 0.00 | 0.00 | 0.00 | 67 | 1012.8 |
| 20260509201417 | 72 | 215 | 2.6 | 5.2 | 0.00 | 0.00 | 0.00 | 67 | 1012.8 |
| 20260509200918 | 73 | 148 | 6.1 | 7.8 | 0.00 | 0.00 | 0.00 | 68 | 1012.8 |
| 20260509200417 | 73 | 125 | 5.2 | 7.8 | 0.00 | 0.00 | 0.00 | 68 | 1012.8 |
| 20260509195917 | 72 | 148 | 5.2 | 7.8 | 0.00 | 0.00 | 0.00 | 68 | 1012.9 |
| 20260509195415 | 73 | 148 | 5.2 | 7.0 | 0.00 | 0.00 | 0.00 | 67 | 1012.9 |
| 20260509194917 | 73 | 148 | 5.2 | 8.7 | 0.00 | 0.00 | 0.00 | 66 | 1012.9 |
| 20260509194417 | 74 | 148 | 1.7 | 9.6 | 0.00 | 0.00 | 0.00 | 66 | 1013.0 |
| 20260509193917 | 74 | 125 | 3.5 | 5.2 | 0.00 | 0.00 | 0.00 | 66 | 1013.1 |
| 20260509193437 | 74 | 170 | 3.5 | 6.1 | 0.00 | 0.00 | 0.00 | 66 | 1013.1 |
| 20260509192917 | 74 | 148 | 4.3 | 7.0 | 0.00 | 0.00 | 0.00 | 65 | 1013.1 |
| 20260509192417 | 74 | 170 | 3.5 | 5.2 | 0.00 | 0.00 | 0.00 | 66 | 1013.1 |
| 20260509191917 | 74 | 193 | 1.7 | 3.5 | 0.00 | 0.00 | 0.00 | 66 | 1013.2 |
| 20260509191417 | 73 | 148 | 2.6 | 5.2 | 0.00 | 0.00 | 0.00 | 67 | 1013.3 |
| 20260509190917 | 72 | 125 | 1.7 | 3.5 | 0.00 | 0.00 | 0.00 | 68 | 1013.4 |
| 20260509190417 | 72 | 148 | 2.6 | 3.5 | 0.00 | 0.00 | 0.00 | 69 | 1013.4 |
| 20260509185917 | 72 | 238 | 2.6 | 4.3 | 0.00 | 0.00 | 0.00 | 69 | 1013.4 |
| 20260509185417 | 72 | 283 | 2.6 | 4.3 | 0.00 | 0.00 | 0.00 | 68 | 1013.5 |
| 20260509184917 | 72 | 238 | 2.6 | 6.1 | 0.00 | 0.00 | 0.00 | 70 | 1013.5 |
| 20260509184417 | 72 | 260 | 3.5 | 5.2 | 0.00 | 0.00 | 0.00 | 70 | 1013.5 |
| 20260509183917 | 72 | 148 | 3.5 | 5.2 | 0.00 | 0.00 | 0.00 | 70 | 1013.6 |
| 20260509183537 | 72 | 260 | 4.3 | 4.3 | 0.00 | 0.00 | 0.00 | 69 | 1013.6 |
| 20260509182937 | 72 | 170 | 2.6 | 3.5 | 0.00 | 0.00 | 0.00 | 71 | 1013.6 |
| 20260509182417 | 71 | 215 | 1.7 | 4.3 | 0.00 | 0.00 | 0.00 | 71 | 1013.6 |
| 20260509181917 | 71 | 238 | 1.7 | 4.3 | 0.00 | 0.00 | 0.00 | 72 | 1013.6 |
| 20260509181417 | 70 | 328 | 0.9 | 1.7 | 0.00 | 0.00 | 0.00 | 72 | 1013.6 |
| 20260509180917 | 70 | 305 | 1.7 | 2.6 | 0.00 | 0.00 | 0.00 | 72 | 1013.6 |
| 20260509180417 | 70 | 170 | 1.7 | 2.6 | 0.00 | 0.00 | 0.00 | 73 | 1013.6 |
| 20260509175917 | 70 | 283 | 2.6 | 3.5 | 0.00 | 0.00 | 0.00 | 72 | 1013.8 |
| 20260509175417 | 70 | 215 | 0.9 | 2.6 | 0.00 | 0.00 | 0.00 | 73 | 1013.8 |
| 20260509174937 | 69 | 283 | 2.6 | 3.5 | 0.00 | 0.00 | 0.00 | 74 | 1013.9 |
| 20260509174417 | 68 | 148 | 0.9 | 1.7 | 0.00 | 0.00 | 0.00 | 75 | 1013.9 |